AZERSPACE 1

Last updated on Sept. 30, 2020, 5:50 a.m. UTC

1 39079U 13006B   20273.80118927  .00000116  00000-0  00000-0 0  9996
2 39079   0.0137 127.3527 0001909  80.0490 136.0297  1.00271615 27884
UTC
Height (km)
Latitude
Longitude
Inclination
Orbital Period
UTC large
Height (km)
Speed (km/s)
/
Latitude / Longitude
Inclination (degrees)
Orbital Period (minutes)
Azimuth
Elevation
Range (km)
Doppler Factor
iOS Compass Heading
iOS Angle

Next 30 passes for location: Hong Kong

Rise time Rise Azimuth (degrees) Set time Set Azimuth (degrees) Duration Max altitude (degrees)

No matching passes for this satellites